Location: Ladd Observatory
(41.8387°N, 71.3996°W)
Time: 16:27:59
(UTC-04:00)

Daily predictions for brighter satellites

Satellite Brightness Start Highest point End
(mag) Time Altitude Azimuth Time Altitude Azimuth Time Altitude Azimuth
CENTAUR R/B 3.3 20:32:03 10° SSE 20:36:49 26° ESE 20:42:06 10° NE
Cosmos 2082 Rocket 4.3 20:32:14 10° WSW 20:37:21 34° WNW 20:42:31 10° N
Cosmos 2322 Rocket 2.8 20:33:11 10° NNW 20:38:32 44° ENE 20:43:52 10° SE
NOAA 11 4.4 20:33:36 10° SSE 20:38:59 61° ENE 20:44:22 10° N
ARGOS 4.2 20:34:55 10° SE 20:39:32 30° ENE 20:44:11 10° N
Cosmos 1725 Rocket 4.0 20:35:32 10° S 20:41:42 87° E 20:47:57 10° N
Tsikada Rocket 4.1 20:36:08 10° N 20:42:35 78° E 20:49:00 10° S
H-2A R/B 3.3 20:39:54 10° ESE 20:43:50 24° ENE 20:47:51 10° NNE
ATLAS CENTAUR R/B 4.1 20:40:13 10° SSW 20:46:08 65° ESE 21:03:58 10° NE
DNEPR-1 R/B 4.2 20:43:31 10° SW 20:47:44 63° NW 20:52:31 10° NNE
Cosmos 2208 Rocket 4.0 20:42:37 10° SSW 20:47:48 79° ESE 20:52:59 10° NNE
USA 186 3.1 20:44:47 10° S 20:47:53 42° W 20:51:07 10° NNW
SL-16 R/B 2.5 20:42:25 10° NNW 20:47:59 55° ENE 20:53:33 10° SE
Tiangong 2 1.0 20:45:04 10° WSW 20:48:13 77° SSE 20:51:21 10° E
ATLAS 3B R/B 3.3 20:43:20 10° SW 20:50:28 66° NW 20:57:21 10° NNE
Cosmos 990 Rocket 4.4 20:47:31 10° N 20:52:34 48° ENE 20:57:36 10° SE
Cosmos 1340 Rocket 4.3 20:50:06 10° SE 20:53:09 21° E 20:56:14 10° NE
Cosmos 1378 Rocket 3.8 20:49:30 10° SSW 20:53:48 75° W 20:58:08 10° N
Cosmos 1975 Rocket 3.2 20:53:23 10° S 20:57:37 55° E 21:01:50 10° NNE
Okean 1 Rocket 3.5 20:54:36 10° NNW 20:58:56 64° W 21:03:12 10° S
YAOGAN 6 4.4 20:57:30 10° SSW 21:00:52 32° W 21:04:13 10° NNW
Shenzhou-11 Module 2.0 20:58:36 10° W 21:01:35 80° N 21:04:30 10° E
ELECTRON R/B 4.2 21:00:38 10° N 21:03:04 74° E 21:05:30 10° SSE
Cosmos 1242 Rocket 2.5 21:01:52 10° N 21:05:32 74° ENE 21:09:07 10° SSE
Aureole 2 Rocket 3.5 21:05:57 10° N 21:08:23 23° ENE 21:09:57 15° ESE
CZ-4C R/B 4.3 21:04:45 10° NNW 21:10:30 26° NE 21:16:50 10° E
BREEZE-M R/B 3.5 21:07:56 10° WSW 21:12:19 49° NNW 21:14:59 10° NE
CZ-4B DEB 4.4 21:09:34 10° SSE 21:13:00 81° ENE 21:16:30 10° N
Cosmos 1544 Rocket 4.1 21:09:47 10° N 21:14:00 41° ENE 21:17:19 15° SE
Cosmos 2150 Rocket 4.4 21:08:49 10° N 21:14:06 52° ENE 21:18:20 15° SE
Cosmos 2084 3.4 21:12:06 10° SW 21:16:26 87° WNW 21:20:33 10° NE
Atlas Centaur 2 3.3 21:17:12 10° SSW 21:18:12 11° SSW 21:19:12 10° S
Cosmos 2233 Rocket 4.2 21:14:26 10° SSW 21:20:34 75° W 21:26:48 10° N
Cosmos 1975 3.8 21:17:54 10° NNW 21:21:48 47° W 21:25:38 10° SSW
SL-08 RB Rocket 3.9 21:20:48 16° SE 21:24:17 54° ENE 21:28:45 10° N
SJ 16-02 2.7 21:22:05 10° N 21:25:49 25° ENE 21:28:17 16° ESE
Resurs 01 Rocket 3.3 21:24:01 10° SSW 21:27:55 30° W 21:31:49 10° NW
Meteor 1-19 Rocket 4.4 21:22:04 10° SSW 21:27:59 82° W 21:33:56 10° N
Cosmos 2360 Rocket 2.7 21:22:54 10° NNW 21:28:23 48° ENE 21:32:17 19° SE
Spot 2 Rocket 4.4 21:23:51 10° S 21:28:40 46° W 21:33:32 10° NNW
Cosmos 1980 Rocket 4.3 21:26:22 10° NW 21:30:37 22° W 21:34:52 10° SSW
Cosmos 1536 Rocket 4.2 21:28:12 18° SSE 21:31:02 38° E 21:35:10 10° NNE
Cosmos 540 Rocket 4.0 21:27:11 13° SSE 21:31:26 38° ESE 21:36:11 10° NE
Cosmos 2219 Rocket 4.1 21:28:16 10° N 21:31:58 18° NE 21:35:38 10° E
ATLAS CENTAUR R/B 4.3 21:31:26 10° W 21:33:25 13° WSW 21:35:26 10° SW
Cosmos 1937 Rocket 3.6 21:29:16 10° NNW 21:34:24 74° WSW 21:38:38 15° S
Cosmos 2298 Rocket 4.0 21:29:38 10° NNW 21:34:58 88° ENE 21:38:58 18° SSE
Cosmos 1666 4.1 21:31:28 10° NNW 21:35:04 37° W 21:38:38 10° SSW
BREEZE-M DEB (TANK) 3.6 21:34:08 10° W 21:35:22 13° SW 21:36:08 11° SSW
Helios 1B rocket 3.7 21:33:33 10° NE 21:36:47 22° E 21:37:37 21° ESE
Cosmos 1763 Rocket 3.8 21:33:58 10° SSW 21:39:16 73° WNW 21:44:34 10° NNE
Meteor 2-9 Rocket 4.1 21:36:15 10° N 21:41:37 84° W 21:46:09 15° S
Cosmos 841 Rocket 3.5 21:39:34 10° SSW 21:44:48 88° ESE 21:50:07 10° NNE
USA 32 4.0 21:41:43 10° N 21:46:59 87° W 21:51:10 16° S
MetOp-A 4.3 21:44:35 15° S 21:49:06 70° WSW 21:54:28 10° NNW
SPOT 5 3.1 21:49:27 26° SE 21:51:34 49° ENE 21:56:00 10° N
Meteor 1-23 Rocket 4.2 21:48:45 15° S 21:53:19 68° E 21:58:51 10° NNE
Cosmos 2333 Rocket 3.8 21:49:47 10° N 21:54:16 23° NE 21:57:38 14° E
USA 234 3.6 21:49:17 10° NE 21:55:48 69° NW 22:02:19 10° WSW
Cosmos 372 Rocket 4.4 21:51:39 10° N 21:56:37 48° ENE 21:59:02 27° SE
Terra 3.0 21:55:07 22° ESE 21:57:02 29° ENE 22:01:09 10° N
COSMOS 2428 3.6 21:52:25 10° N 21:57:38 36° ENE 22:00:36 22° ESE
CZ-2C R/B 4.4 22:00:16 20° ESE 22:02:43 29° ENE 22:07:27 10° N
CARTOSAT-1 4.4 22:02:12 28° ESE 22:03:36 35° ENE 22:07:32 10° N
Cosmos 1513 Rocket 4.4 21:59:23 12° S 22:05:01 88° W 22:11:15 10° N
Cosmos 1833 4.3 21:59:37 10° SSW 22:05:22 82° WNW 22:11:05 10° NNE
Meteor 2-4 Rocket 4.3 22:00:21 10° SSW 22:05:40 55° WNW 22:11:10 10° N
Lacrosse 5 rocket 1.5 22:01:33 10° NW 22:05:52 68° NE 22:07:25 36° ESE
Cosmos 2034 Rocket 3.9 22:03:34 18° S 22:08:18 80° E 22:14:29 10° N
ERS-1 Rocket 3.2 22:07:45 23° S 22:10:51 65° WSW 22:15:53 10° NNW
Cosmos 1464 Rocket 4.3 22:05:33 10° SSW 22:11:52 71° W 22:18:17 10° N
Abrixas rocket 4.1 22:11:50 10° WNW 22:14:44 29° NNW 22:17:38 10° NE
Cosmos 1025 Rocket 3.2 22:14:38 41° SE 22:15:46 53° E 22:20:03 10° NNE
ISS -0.8 22:13:56 10° NW 22:16:09 17° N 22:18:23 10° NNE
Cosmos 2297 Rocket 4.2 22:17:57 12° E 22:17:57 12° E 22:19:09 10° ENE
USA 245 3.8 22:16:24 32° SSW 22:17:47 51° W 22:21:59 10° NNW
SPOT 1/Viking Rocket 3.5 22:16:50 32° SSE 22:19:17 90° ENE 22:24:29 10° NNW
Cosmos 1515 4.5 22:17:00 20° SSW 22:19:25 50° W 22:23:10 10° N
ARGOS 4.4 22:15:18 13° SSW 22:19:39 37° W 22:24:38 10° NNW
Cosmos 2227 Rocket 4.0 22:21:07 15° E 22:21:07 15° E 22:23:28 10° ENE
Cosmos 2322 3.7 22:15:24 10° NNW 22:21:10 88° WSW 22:23:44 35° SSE
Cosmos 2322 Rocket 3.8 22:17:43 10° NW 22:22:19 27° WSW 22:26:19 12° SSW
H-2A R/B 3.0 22:19:42 18° SSW 22:23:01 40° W 22:27:45 10° NNW
Tiangong 2 1.1 22:21:51 10° W 22:25:00 72° N 22:25:10 69° NE
Cosmos 2237 Rocket 3.9 22:21:55 10° N 22:26:24 23° NE 22:29:13 16° E
CENTAUR R/B 3.2 22:20:57 10° SW 22:26:52 57° NW 22:33:44 10° NNE
Meteor 1-29 2.9 22:28:04 10° NNE 22:31:30 69° E 22:31:30 69° E
SL-16 R/B 4.1 22:27:29 10° NW 22:31:37 21° W 22:35:43 10° SSW
Cosmos 1125 Rocket 3.4 22:26:36 10° NNW 22:31:53 90° ENE 22:33:42 42° SSE
Cosmos 1066 Rocket 4.1 22:30:18 39° SSE 22:32:14 65° E 22:37:39 10° NNE
Cosmos 1634 Rocket 4.2 22:33:15 36° SE 22:35:33 54° E 22:41:42 10° NNE
Shenzhou-11 Module 4.0 22:34:46 10° W 22:36:04 21° WSW 22:36:04 21° WSW
Helios 1A 3.9 22:41:57 31° SW 22:43:15 39° W 22:47:11 10° NNW
Meteor 1-22 Rocket 4.3 22:44:57 10° N 22:50:14 57° ENE 22:51:22 47° ESE
Cosmos 2219 3.2 22:48:54 43° S 22:50:42 67° ESE 22:56:25 10° NNE
Okean 2 4.3 22:50:55 30° SW 22:52:30 44° WNW 22:56:31 10° N
Cosmos 1766 3.8 22:51:40 10° N 22:55:20 48° ENE 22:55:20 48° ENE
Cosmos 1892 Rocket 3.9 22:57:18 48° E 22:57:18 48° E 23:01:16 10° NNE
Intercosmos 25 4.2 22:58:18 40° ENE 22:58:18 40° ENE 23:01:13 10° NNE
Nimbus 7 Rocket 4.3 22:53:01 10° NNE 22:58:56 86° ESE 23:01:14 40° SSW
CZ-4C R/B 2.9 22:52:42 10° NW 22:59:59 88° ENE 23:03:19 40° SE
SJ 16-02 2.7 23:00:31 10° NW 23:04:23 30° W 23:05:18 27° WSW
Cosmos 1356 Rocket 4.5 23:03:27 31° WSW 23:04:53 42° WNW 23:08:59 10° N
Cosmos 1544 3.4 23:01:48 10° NNW 23:05:13 63° WNW 23:05:13 63° WNW
Okean 1-7 Rocket 3.7 23:05:55 62° SW 23:06:35 77° W 23:11:10 10° N
COSMOS 2455 3.5 23:07:46 37° ESE 23:07:46 37° ESE 23:13:02 10° NE
Cosmos 2360 Rocket 3.8 23:07:35 10° NW 23:12:01 24° WSW 23:14:04 20° SW
Helios 1B rocket 4.1 23:08:27 10° N 23:12:05 30° WNW 23:13:58 21° WSW
Cosmos 2228 3.1 23:08:52 10° N 23:12:59 62° ENE 23:12:59 62° ENE
CZ-2C R/B 2.6 23:07:57 10° NNE 23:13:37 77° ESE 23:14:47 57° S
Cosmos 2219 Rocket 2.1 23:10:58 10° NNW 23:16:35 79° WSW 23:17:36 60° S
Cosmos 1726 Rocket 3.4 23:12:51 10° N 23:17:17 88° W 23:17:20 87° SW
Cosmos 1092 Rocket 4.4 23:12:10 10° NNW 23:18:20 56° W 23:20:43 36° SSW
Cosmos 1842 3.7 23:31:21 58° N 23:31:21 58° N 23:34:33 10° N
Cosmos 1805 3.7 23:27:44 10° N 23:31:01 60° NNW 23:31:01 60° NNW
Cosmos 2058 Rocket 3.0 23:27:09 10° N 23:31:33 84° NNW 23:31:33 84° NNW
Cosmos 1818 4.5 23:33:23 34° E 23:33:23 34° E 23:37:15 10° NE
Iridium 4 Rocket 3.8 23:33:13 58° ESE 23:33:54 63° E 23:39:42 10° N
Terra 3.1 23:33:59 28° WSW 23:34:43 30° W 23:38:54 10° NW
Cosmos 1470 4.3 23:32:52 10° NNE 23:35:32 28° NE 23:35:32 28° NE
Cosmos 2333 Rocket 2.3 23:33:20 10° NNW 23:38:57 59° WSW 23:39:38 55° SW
COSMOS 2428 3.6 23:36:44 10° NW 23:41:48 34° WSW 23:42:36 33° WSW
CZ-2C R/B 4.0 23:41:20 36° WSW 23:42:21 39° W 23:47:35 10° NNW
SL-16 R/B 3.3 23:38:07 10° N 23:43:20 36° ENE 23:44:52 31° E
Cosmos 489 Rocket 4.4 23:38:07 10° NNW 23:44:30 83° WSW 23:45:42 61° S
Lacrosse 5 rocket 3.8 23:42:07 10° W 23:43:05 13° W 23:43:05 13° W
NOSS 0 Rocket 3.9 23:39:35 10° NNW 23:45:49 69° WSW 23:46:47 59° SSW
ALOS 2 3.4 23:46:19 41° ENE 23:46:19 41° ENE 23:50:12 10° N
Cosmos 2026 Rocket 4.4 23:41:58 10° NNW 23:47:53 51° W 23:49:22 42° SW
SL-19 R/B 4.3 23:44:29 10° NNE 23:50:40 77° ESE 23:51:28 66° SSE
Abrixas rocket 4.5 23:48:58 10° NW 23:51:14 24° N 23:51:14 24° N
Cosmos 1655 Rocket 4.0 23:45:25 10° N 23:51:47 74° W 23:53:03 57° SSW
Cosmos 2279 Rocket 4.1 23:50:12 48° SW 23:51:48 66° W 23:58:01 10° N
Cosmos 1953 3.2 23:49:04 10° N 23:52:04 45° NNE 23:52:04 45° NNE
Cosmos 1980 3.5 23:47:24 10° NNW 23:53:04 76° WSW 23:53:29 72° SSW
ISS -0.9 23:51:23 10° NNW 23:53:35 17° N 23:55:04 13° NE
